This is the latest recevied weather packets stored in our database for station/object KD7DVD-1. If no packets are shown the sender has not sent any weather packets the latest 10 day(s).
| Time | Temp. | Humidity | Pressure | Rain* | Wind** | Luminosity | Snow |
|---|---|---|---|---|---|---|---|
| 1787931022 | 16.67° C | 82% | 1018 hPa | 0 mm | - | - | - |
| 1787929217 | 16.11° C | 84% | 1018 hPa | 0 mm | - | - | - |
| 1787927417 | 16.11° C | 85% | 1017.9 hPa | 0 mm | - | - | - |
| 1787925617 | 15.56° C | 86% | 1017.9 hPa | 0 mm | - | - | - |
| 1787923817 | 15.56° C | 87% | 1017.8 hPa | 0 mm | - | - | - |
| 1787922017 | 15° C | 87% | 1017.8 hPa | 0 mm | - | - | - |
| 1787920216 | 15° C | 88% | 1017.7 hPa | 0 mm | - | - | - |
| 1787918416 | 15° C | 88% | 1017.7 hPa | 0 mm | - | - | - |
| 1787916616 | 14.44° C | 88% | 1017.6 hPa | 0 mm | - | - | - |
| 1787914816 | 14.44° C | 88% | 1017.7 hPa | 0 mm | - | - | - |
| 1787913016 | 14.44° C | 88% | 1017.7 hPa | 0 mm | - | - | - |
| 1787911217 | 14.44° C | 89% | 1017.7 hPa | 0 mm | - | - | - |
| 1787909416 | 14.44° C | 88% | 1018 hPa | 0 mm | - | - | - |
| 1787907616 | 14.44° C | 87% | 1018.1 hPa | 0 mm | - | - | - |
| 1787905816 | 14.44° C | 87% | 1018.1 hPa | 0 mm | - | - | - |
| 1787904016 | 15° C | 87% | 1018.2 hPa | 0 mm | - | - | - |
| 1787902216 | 15° C | 86% | 1018.2 hPa | 0 mm | - | - | - |
| 1787900416 | 15.56° C | 85% | 1018.2 hPa | 0 mm | - | - | - |
| 1787898617 | 15.56° C | 84% | 1018 hPa | 0 mm | - | - | - |
| 1787896817 | 16.11° C | 82% | 1017.9 hPa | 0 mm | - | - | - |
| 1787895017 | 16.11° C | 81% | 1017.8 hPa | 0 mm | - | - | - |
| 1787893216 | 16.67° C | 79% | 1017.9 hPa | 0 mm | - | - | - |
| 1787891416 | 17.22° C | 78% | 1017.5 hPa | 0 mm | - | - | - |
| 1787889617 | 17.78° C | 76% | 1017.4 hPa | 0 mm | - | - | - |
| 1787887816 | 18.89° C | 73% | 1017.4 hPa | 0 mm | - | - | - |
* Rain latest hour (hover to see other rain measurements)
** Current wind speed in m/s (hover to see current wind gust speed)